This demonstration page uses our WeatherBlox Daily Observations layout. Learn more.

Left ArrowRight Arrow

40.92945, -100.16068

Hourly Observations for May 18, 2020

Temp ( °F °C ) Dew Point ( °F °C ) Humidity (%) Winds ( mph kmh ) Pressure ( in mb ) Visibility ( mi km ) Precip ( " mm )
12:15 am 00:15 Clear 46 7.9 45 7.1 95 95 N 6 9 30.09 1019 10 16.0934 0 0
12:35 am 00:35 Clear 46 7.6 45 7 96 96 NNW 6 9 30.09 1019 10 16.0934 0 0
12:50 am 00:50 Clear 45 7.3 44 6.7 96 96 N 6 9 30.1 1019 10 16.0934 0 0
1:15 am 01:15 Clear 44 6.7 43 6.1 96 96 NW 6 9 30.11 1020 10 16.0934 0 0
1:35 am 01:35 Clear 44 6.5 43 6 97 97 NW 6 9 30.11 1020 10 16.0934 0 0
1:55 am 01:55 Clear 44 6.5 43 6 97 97 NNW 5 7 30.1 1019 10 16.0934 0 0
2:15 am 02:15 Clear 44 6.5 43 6 97 97 NW 5 7 30.1 1019 10 16.0934 0 0
2:35 am 02:35 Clear 43 6 42 5.6 97 97 NW 6 9 30.12 1020 10 16.0934 0 0
2:55 am 02:55 Clear 43 6.2 42 5.7 97 97 NW 5 7 30.11 1020 7 11.26538 0 0
3:15 am 03:15 Clear with Mist and Fog 42 5.8 42 5.5 98 98 NNW 6 9 30.11 1020 5 8.0467 0 0
3:35 am 03:35 Clear with Mist and Fog 43 6 42 5.5 97 97 N 5 7 30.1 1019 5 8.0467 0 0
3:55 am 03:55 Clear with Mist and Fog 43 6 42 5.6 97 97 NNW 3 6 30.1 1019 5 8.0467 0 0
4:15 am 04:15 Clear with Mist and Fog 42 5.6 41 5.2 97 97 N 6 9 30.1 1019 5 8.0467 0 0
4:35 am 04:35 Clear with Mist and Fog 42 5.5 41 5.2 98 98 N 6 9 30.1 1019 5 8.0467 0 0
4:55 am 04:55 Clear 43 6.2 43 5.9 98 98 NNE 6 9 30.08 1019 10 16.0934 0 0
5:15 am 05:15 Clear 44 6.6 43 6.1 97 97 NNE 7 11 30.07 1018 10 16.0934 0 0
5:35 am 05:35 Clear 44 6.4 43 5.9 97 97 NNE 5 7 30.08 1019 10 16.0934 0 0
5:55 am 05:55 Clear 43 6.1 42 5.6 97 97 NE 5 7 30.08 1019 10 16.0934 0 0
6:15 am 06:15 Clear 45 7 44 6.5 97 97 NE 9 15 30.07 1018 10 16.0934 0 0
6:30 am 06:30 Sunny 45 7.2 44 6.6 96 96 NE 7 11 30.07 1018 10 16.0934 0 0
6:55 am 06:55 Sunny 45 7.1 44 6.5 96 96 NNE 6 9 30.07 1018 10 16.0934 0 0
7:15 am 07:15 Partly Cloudy 45 7.3 44 6.6 95 95 Calm 30.09 1019 10 16.0934 0 0
7:35 am 07:35 Cloudy with Mist and Fog 46 7.8 45 7.4 97 97 NE 5 7 30.09 1019 4 6.43736 0 0
7:55 am 07:55 Cloudy with Mist and Fog 46 7.6 45 7.3 98 98 Calm 30.1 1019 0.75 1.207005 0 0
8:15 am 08:15 Cloudy with Mist and Fog 46 7.7 46 7.5 99 99 NE 3 6 30.11 1020 1 1.60934 0 0
8:35 am 08:35 Cloudy with Mist and Fog 46 7.9 46 7.6 98 98 NE 3 6 30.11 1020 1.75 2.816345 0 0
8:55 am 08:55 Cloudy with Mist and Fog 46 8 46 7.7 98 98 NE 5 7 30.12 1020 2.5 4.02335 0 0
9:15 am 09:15 Cloudy with Mist and Fog 47 8.2 46 7.8 97 97 N 3 6 30.12 1020 1.75 2.816345 0 0
9:35 am 09:35 Cloudy with Mist and Fog 47 8.3 46 8 98 98 NNE 3 6 30.12 1020 3 4.82802 0 0
9:55 am 09:55 Cloudy 48 8.9 47 8.1 95 95 N 6 9 30.11 1020 7 11.26538 0 0
10:15 am 10:15 Cloudy 49 9.2 47 8.3 94 94 Calm 30.11 1020 10 16.0934 0 0
10:35 am 10:35 Cloudy 49 9.6 47 8.6 94 94 NE 5 7 30.09 1019 10 16.0934 0 0
10:55 am 10:55 Cloudy 50 10 47 8.6 91 91 Calm 30.09 1019 10 16.0934 0 0
11:15 am 11:15 Cloudy 51 10.5 48 8.8 89 89 NNE 5 7 30.09 1019 10 16.0934 0 0
11:35 am 11:35 Cloudy 52 10.9 48 9.1 89 89 ENE 3 6 30.08 1019 10 16.0934 0 0
11:55 am 11:55 Cloudy 53 11.4 48 8.9 85 85 ESE 6 9 30.07 1018 10 16.0934 0 0
12:15 pm 12:15 Cloudy 54 12.3 49 9.7 84 84 ENE 5 7 30.06 1018 10 16.0934 0 0
12:35 pm 12:35 Cloudy 56 13.1 51 10.3 83 83 NE 6 9 30.04 1017 10 16.0934 0 0
12:55 pm 12:55 Cloudy 56 13.4 50 10.2 81 81 N 3 6 30.03 1017 10 16.0934 0 0
1:15 pm 13:15 Mostly Cloudy 57 14 51 10.5 80 80 ENE 3 6 30.02 1017 10 16.0934 0 0
1:35 pm 13:35 Partly Cloudy 59 14.9 52 11.2 79 79 ENE 6 9 30.01 1016 10 16.0934 0 0
1:55 pm 13:55 Sunny 60 15.5 52 11.3 76 76 ESE 5 7 29.99 1016 10 16.0934 0 0
2:15 pm 14:15 Sunny 61 16.1 52 11.2 73 73 ENE 5 7 29.98 1015 10 16.0934 0 0
2:35 pm 14:35 Sunny 62 16.6 52 11.2 71 71 Calm 29.97 1015 10 16.0934 0 0
2:55 pm 14:55 Sunny 63 17.2 52 11.2 68 68 Calm 29.96 1014 10 16.0934 0 0
3:15 pm 15:15 Sunny 65 18.1 54 12.3 69 69 ENE 7 11 29.94 1014 10 16.0934 0 0
3:35 pm 15:35 Sunny 65 18.5 50 10.2 59 59 Calm 29.93 1013 10 16.0934 0 0
3:55 pm 15:55 Sunny 66 19 51 10.3 57 57 SE 3 6 29.92 1013 10 16.0934 0 0
4:15 pm 16:15 Sunny 67 19.6 52 11.3 59 59 NE 5 7 29.91 1013 10 16.0934 0 0
4:35 pm 16:35 Sunny 67 19.4 51 10.7 57 57 Calm 29.9 1012 10 16.0934 0 0
4:55 pm 16:55 Sunny 68 19.9 53 11.4 58 58 SSE 5 7 29.88 1012 10 16.0934 0 0
5:15 pm 17:15 Sunny 68 20.1 52 11 56 56 E 6 9 29.88 1012 10 16.0934 0 0
5:35 pm 17:35 Sunny 68 20 52 10.9 56 56 E 7 11 29.88 1012 10 16.0934 0 0
5:55 pm 17:55 Sunny 68 20 53 11.4 58 58 ESE 7 11 29.88 1012 10 16.0934 0 0
6:15 pm 18:15 Sunny 68 19.9 53 11.4 58 58 ESE 6 9 29.87 1012 10 16.0934 0 0
6:35 pm 18:35 Sunny 69 20.4 53 11.9 58 58 E 7 11 29.87 1011 10 16.0934 0 0
6:55 pm 18:55 Sunny 66 19 53 11.8 63 63 E 7 11 29.88 1012 10 16.0934 0 0
7:15 pm 19:15 Sunny 66 18.9 53 11.5 62 62 E 6 9 29.88 1012 10 16.0934 0 0
7:35 pm 19:35 Partly Cloudy 66 19 53 11.5 62 62 E 8 13 29.88 1012 10 16.0934 0 0
7:55 pm 19:55 Sunny 65 18.4 52 11.3 63 63 E 7 11 29.9 1012 10 16.0934 0 0
8:15 pm 20:15 Sunny 65 18.1 53 11.6 66 66 E 6 9 29.9 1012 10 16.0934 0 0
8:35 pm 20:35 Sunny 62 16.7 53 11.5 72 72 E 6 9 29.91 1013 10 16.0934 0 0
8:55 pm 20:55 Clear 59 15.2 53 11.6 79 79 E 6 9 29.93 1014 10 16.0934 0 0
9:15 pm 21:15 Clear 59 15 52 11.1 78 78 E 5 7 29.94 1014 10 16.0934 0 0
9:35 pm 21:35 Clear 59 14.9 52 11 78 78 E 3 6 29.95 1014 10 16.0934 0 0
9:55 pm 21:55 Clear 59 14.9 51 10.7 76 76 E 3 6 29.95 1014 10 16.0934 0 0
10:15 pm 22:15 Clear 56 13.2 50 10.2 82 82 ENE 5 7 29.96 1015 10 16.0934 0 0
10:35 pm 22:35 Clear 54 12 50 9.9 87 87 E 5 7 29.97 1015 10 16.0934 0 0
10:55 pm 22:55 Clear 55 12.5 49 9.6 83 83 ENE 5 7 29.98 1015 10 16.0934 0 0
11:15 pm 23:15 Clear 54 12.3 50 9.8 85 85 ENE 6 9 29.99 1016 10 16.0934 0 0
11:35 pm 23:35 Clear 56 13.2 50 10.1 82 82 E 10 17 29.98 1015 10 16.0934 0 0
11:55 pm 23:55 Clear 55 12.7 50 10.1 84 84 E 12 19 29.99 1015 10 16.0934 0 0

Powered by AerisWeather